sat.trackr.live / text

‹ back to catalog

STARLINK-35374

NORAD 66194 · 2025-243T

PAYLOAD ACTIVE UNKNOWN

§ Identity

Operator
Country
US
Launch date
2025-10-26
Launch site
AFETR
Launch vehicle
Mass (kg)
RCS (m²)

Purposes: comms

External: N2YO · Heavens-Above · Gunter

§ Orbital elements

Epoch: 2026-09-20T16:39:50.631264Z

Period
94.01 min
Inclination
53.1594°
Eccentricity
0.0001699
Mean motion
15.31723916 rev/d
Perigee alt
469.5 km
Apogee alt
471.8 km
Semi-major
6,848.8 km
B*
7.0260e-4
RAAN
57.7902°
Arg perigee
84.6861°
Mean anomaly
275.4335°
Rev number
5,053

§ Raw data

STARLINK-353741 66194U 25243T   26263.69433601  .00021517  00000+0  70260-3 0  99962 66194  53.1594  57.7902 0001699  84.6861 275.4335 15.31723916 50533

JSON: /api/v1/satellites/66194 · /tle

For live sub-satellite position, see the globe view (requires WebGL).

§ Visibility from observer

Set your observer location to see the next 7 days of passes ≥ 10°. The values pass through the URL so the page stays shareable.

No JS? Fill the form by hand. The geolocation button needs JavaScript.